User: anonymous   Login
Location: Unspecified
(0.0000°N, 0.0000°E)
Time: 13:07:11
(UTC+02:00)
Language:

NOAA 12 - Orbit

View from above orbital plane
View from above orbital plane
View from above satellite
View from above satellite

Ground track
Ground track

The orbit data is extracted from the following two-line orbital elements,

1 21263U 91032A   16204.61798657 -.00000022  00000-0  88966-5 0  9998
2 21263  98.5935 229.5952 0014103 159.2168 200.9588 14.25817364309768
Epoch (UTC): 22 July 2016 14:49:54
Eccentricity: 0.0014103
inclination: 98.5935°
perigee height: 795 km
apogee height: 816 km
right ascension of ascending node: 229.5952°
argument of perigee: 159.2168°
revolutions per day: 14.25817364
mean anomaly at epoch: 200.9588°
orbit number at epoch: 30976

The dashed part of the orbit path shows where the satellite is in the earth's shadow,  

DLR